Retour au catalogue

STARLINK-32399

ActifCommunicationsVLEO
NORAD 61627·PAYLOAD·🇺🇸 United States

Lancé Oct 23, 2024 depuis Cape Canaveral Space Force Station

Loading…

Prochains Passages (prochaines 24 heures)

TLE

FraisSource: CelesTrak SupGP

Époque: Sep 15, 2026, 03:22 UTC

1 61627C 24191G   26258.14076389  .00046603  00000+0  16884-2 0  2585
2 61627  43.0012 157.1588 0001460 275.6592 179.6102 15.27546391    16

Suivez STARLINK-32399 en temps réel avec AllMySat

Download on the App Store